Weather in Medvezhye

Russia / Oryol Oblast     52°39′45″N   37°38′14″E
В апреле 2022 года жителям России запретили посещать сайт meteo.paraplan.net по решению Генеральной прокуратуры. Аудитория сайта уменьшилась в 10 раз. Владельцы сайта не видят смысла в поддержке погодного сервера в таких условиях. Сайт будет закрыт в октябре.
temp.,
°C
wind,
m/s
gust,
m/s
humid.,
%
clouds,
%
prec.,
mm/h
press.,
hPa
HPBL,
m
4 october, tue
tue400:00+9s816816 0.0 1006704
03:00+8s816845 0.0 1007668
06:00+8sse8178659 0.0 1007609
09:00+10s9178121 0.1 10081191
12:00+12ssw81475100 0.6 10091511
15:00+9ssw51284100 1.1 1011862
18:00+9sw51179100 0.0 1012965
21:00+9ssw6118196 0.1 1013953
5 october, wed
wed500:00+8ssw61186100 0.2 1013795
03:00+8ssw61087100 0.4 10131053
06:00+8ssw6108896 0.7 1013930
09:00+8wsw5986100 1.6 1015883
12:00+8wsw588696 0.4 10161023
15:00+8w697767 0.8 1017817
18:00+8w5981100 0.3 1018552
21:00+7wsw5109054 0.8 1019491
6 october, thu
thu600:00+7w599198 0.1 1020396
03:00+8w599198 0.1 1020617
06:00+8wsw3797100 0.2 1020412
09:00+8wsw4996100 0.4 1020485
12:00+10w488994 0.0 1020550
15:00+12w478375 0.1 1020743
18:00+12wsw3687100 0.1 1021171
21:00+10wsw39925 0.1 1021228
7 october, fri
fri700:00+9sw410945 0.0 1021233
03:00+8wsw499527 0.0 1021190
06:00+8w499665 0.0 1021198
09:00+10nw599142 0.0 1022334
12:00+13nw68773 0.0 1024605
15:00+15nw57590 0.0 1024944
18:00+11nnw35790 0.0 102667
21:00+9nnw33880 0.0 102756
8 october, sat
sat800:00+8nnw22930 0.0 102823
03:00+7wnw11930 0.0 102810
06:00+7ssw11920 0.0 102810
09:00+9ssw23840 0.0 1027172
12:00+13ssw33681 0.0 1026580
15:00+15ssw34600 0.0 1024812
18:00+11s33725 0.0 102337
21:00+10s36797 0.0 1023103